Location: ??
(35.5052°N, 139.7262°E)
Time: 03:51:56
(UTC+00:00)

Meteor 1-24 Rocket - Pass Details

Date: 20 June 2021
Orbit: 791 x 926 km, 81.2° (Epoch: 26 July)

Event Time Altitude Azimuth Distance (km) Brightness Sun altitude
Exits shadow 12:20:48 51° 134° (SE) 1,006 3.7 -22.2°
Maximum altitude 12:21:44 58° 94° (E) 932 3.7 -22.3°
Drops below altitude 10° 12:27:04 10° 17° (NNE) 2,420 6.6 -22.9°
Sets 12:29:31 0° 13° (NNE) 3,375 7.5 -23.2°
